星链-31316 (STARLINK-31316 )

导读

STARLINK-31316是美国SpaceX星链互联网星座的卫星,由美国在2024年2月29日发射升空,是星链低轨星座扩容任务的一部分,主要承担为全球提供高速低延迟卫星互联网接入服务的职责,运行在近地轨道,服务覆盖偏远地区及海洋空域,补充地面网络覆盖盲区。

基本信息
目录编号:
59090
目录名称:
STARLINK-31316
国际标识:
2024-041S
轨道中心:
EARTH
卫星名称:
星链-31316
卫星全名:
星链-31316 (STARLINK-31316 )
卫星状态:
在轨 (已飞行840 天)
发射日期:
2024-02-29 UTC
国别 :
美国 (US)
星等 :
--
轨道信息
数据来源 国际轨道数据
星历时间: 2026-06-17T08:22:19+0800
1天前
查看轨道信息
半长轴: 6861.18km
偏心率: 0.0001172
轨道倾角: 43.002°
近地点辐角 268.881°
升交点赤经 62.950°
平近点角 91.191°
近地点: 482.238km
远地点: 483.848km
周期: 94.267分钟
每日圈数: 15.275822
详细信息
固有亮度:
5
最大亮度:
0.3
卫星平台:
Starlink v2.0 mini
覆盖范围:
全球
运营商:
太空探索技术公司
运营商所在国:
美国
制造商(研发单位):
太空探索技术公司
制造商所在国:
美国
使用方式:
暂无
卫星简介
星链(Starlink)计划是由太空探索技术公司(SpaceX)提出的一个巨型低轨卫星互联网星座项目,计划在2019年至2024年间在太空搭建由约1.2万颗卫星组成的“星链”网络,其中1584颗将部署在地球上空550千米处的近地轨道,并从2020年开始工作。该卫星仍在工作。
2D轨道图
3D轨道图
轨道高度分析图
轨道倾角分析图
轨道综合分析图
查看轨道综合分析图